Location: Betpouey
(42.8833°N, 0.0333°E)
Time: 05:15:38
(UTC+00:00)

Meteor 2-13 Rocket - Pass Details

Date: 03 July 2021
Orbit: 935 x 958 km, 82.5° (Epoch: 26 July)

Event Time Altitude Azimuth Distance (km) Brightness Sun altitude
Exits shadow 23:04:19 46° 179° (S) 1,260 4.6 -22.8°
Maximum altitude 23:06:17 84° 97° (E) 968 4.4 -22.9°
Drops below altitude 10° 23:12:28 10° 10° (N) 2,692 7.7 -23.2°
Sets 23:14:58 0° 10° (N) 3,638 8.6 -23.3°
